Wind_Speed
15 28 28 20 21 20 18 18 19 19 18 16 14 13 13 12 10 10 11 10 10 8 8 8 6 5 5 4 3 3 2 4 2
16 28 34 28 25 23 23 21 22 20 20 19 18 16 14 13 13 13 11 10 8 9 8 6 6 4 4 1 2 3 5 5 3
14 23 34 33 29 29 26 26 25 22 21 20 20 20 17 16 13 13 12 13 13 12 12 11 9 9 8 9 8 8 7 4 2
19 24 34 32 30 29 26 30 27 25 22 20 20 19 19 17 16 15 15 14 12 11 12 11 9 14 9 12 11 9 7 4 3
30 31 33 31 36 34 29 28 27 23 24 22 21 19 19 18 16 15 14 14 14 13 12 11 12 13 11 9 8 7 5 4 5
29 35 33 30 36 35 32 33 34 29 26 21 22 22 21 20 19 18 18 17 16 16 15 14 16 14 12 11 9 8 9 9 8
24 27 26 39 33 43 40 45 36 30 29 28 24 23 23 22 21 21 20 20 19 18 18 17 17 15 13 13 13 12 14 14 13
8 24 23 24 29 43 39 34 35 29 31 27 23 21 22 22 24 24 22 21 22 22 20 20 20 19 17 17 17 17 18 17 18
16 9 16 27 27 34 45 36 35 35 35 29 26 31 29 26 25 25 25 25 24 25 24 23 21 21 20 20 20 20 21 20 19
24 22 15 16 27 28 46 46 44 41 39 39 36 35 28 34 32 30 31 31 29 26 26 26 25 24 23 22 23 23 22 22 22
13 19 15 16 11 17 19 34 44 44 48 46 47 43 41 38 41 40 39 36 34 30 29 30 28 26 26 25 24 25 26 26 27
18 15 20 18 15 15 14 12 15 25 30 34 41 35 43 37 45 53 45 38 40 35 33 33 31 29 28 27 27 29 31 31 31
20 17 19 25 20 16 15 15 12 16 20 25 38 43 39 51 39 48 44 43 38 37 36 36 33 34 32 31 31 31 34 37 36
16 17 21 21 20 21 19 17 18 18 21 22 20 33 36 31 27 40 44 45 43 41 42 38 40 38 33 32 33 34 34 30 27
19 18 19 23 23 22 23 20 21 19 19 21 19 25 35 36 26 18 38 46 42 42 39 39 34 38 35 36 34 36 34 32 30
26 22 22 21 28 26 26 25 20 20 18 16 17 15 23 32 39 34 27 33 46 44 43 33 37 39 39 38 38 38 33 31 29
27 25 26 27 28 23 30 26 26 23 22 18 16 19 20 12 18 31 33 33 29 33 33 33 33 36 35 33 31 26 24 26 25
26 24 26 27 29 29 29 28 29 26 24 22 20 20 21 16 17 11 16 11 7 8 10 12 13 14 17 19 21 24 25 26 27
26 23 23 29 29 31 28 26 27 29 28 27 26 26 24 24 24 28 15 16 16 15 16 17 19 22 22 23 24 26 28 29 30
27 32 25 30 33 30 34 32 30 29 33 32 32 30 29 27 25 23 16 17 23 22 23 22 22 25 25 23 25 28 28 31 31
Wind_Direction
248 200 207 200 208 226 222 222 209 191 193 191 184 187 171 164 153 154 161 165 177 191 191 191 195 201 171 178 167 166 223 252 240
262 205 204 208 204 223 233 224 222 205 199 197 190 199 187 184 164 169 167 166 184 183 205 201 183 188 187 190 222 226 226 238 219
242 214 203 212 202 210 220 230 229 216 207 209 202 197 203 198 195 184 186 191 197 194 195 196 188 202 230 212 200 208 219 226 266
236 217 208 205 206 205 215 228 233 227 219 212 216 210 211 206 206 201 205 214 219 220 218 203 205 204 224 201 201 203 208 217 250
238 213 228 216 207 213 214 227 228 235 229 221 222 222 217 218 210 210 210 214 225 226 224 229 225 208 219 212 205 208 229 243 260
233 222 221 213 213 212 213 217 223 235 233 227 227 226 222 219 219 212 215 213 221 224 224 230 226 225 225 227 227 237 252 256 268
240 215 214 222 233 215 216 211 219 226 228 221 220 228 226 226 224 223 223 224 224 227 226 229 234 242 239 238 240 242 250 261 263
272 234 225 230 232 215 216 220 219 222 224 231 224 224 228 233 229 223 223 229 225 229 232 234 238 241 245 246 245 245 247 252 258
281 333 250 240 239 235 214 211 219 223 230 228 236 226 234 231 235 234 225 220 227 230 232 238 243 250 255 258 259 257 258 263 267
296 300 300 235 247 233 222 222 223 222 230 228 235 229 232 246 239 235 234 231 229 234 239 240 242 245 248 253 258 262 263 266 270
273 281 276 272 242 252 253 224 223 232 223 228 244 221 237 227 241 238 236 235 230 234 239 244 243 248 254 257 262 264 267 266 268
271 270 263 256 244 239 254 277 251 263 247 233 229 230 237 247 229 242 236 237 230 231 235 245 251 249 251 255 260 262 267 269 271
272 265 238 235 245 235 238 266 273 274 267 259 252 242 252 251 261 248 235 236 236 227 230 235 240 241 247 254 258 263 265 270 273
266 260 248 244 242 255 253 260 277 285 278 273 273 250 253 243 266 253 243 235 240 238 232 252 241 241 247 255 259 264 264 268 273
264 254 245 243 239 243 249 248 260 270 268 262 272 274 249 249 252 268 229 230 224 223 243 231 234 244 250 246 272 258 257 268 275
279 263 241 240 237 229 231 240 246 254 254 261 259 263 255 247 247 258 251 237 234 225 231 236 248 253 257 254 254 256 263 266 264
276 266 254 231 233 242 218 224 240 247 256 253 245 243 226 234 217 210 206 205 201 222 233 235 238 245 249 247 251 248 247 254 257
270 260 250 246 232 224 227 231 231 234 243 248 248 238 229 251 233 238 197 175 195 219 231 239 251 244 250 252 249 254 261 261 264
270 250 244 237 233 223 223 222 226 227 232 235 239 250 255 267 278 284 288 271 242 257 274 263 265 264 263 266 264 264 268 271 274
264 248 250 233 232 221 219 225 226 229 232 234 239 239 241 245 253 262 261 262 262 237 236 247 262 276 281 273 273 274 273 274 275
Height
5869 5869 5872 5878 5881 5882 5886 5888 5891 5893 5894 5896 5899 5902 5904 5905 5908 5910 5913 5915 5916 5917 5919 5920 5921 5923 5924 5926 5926 5927 5928 5929 5929
5863 5862 5868 5874 5879 5880 5883 5887 5890 5891 5892 5895 5897 5900 5902 5903 5906 5909 5911 5912 5916 5918 5920 5920 5921 5921 5922 5924 5924 5926 5927 5928 5927
5858 5859 5864 5870 5874 5877 5880 5883 5887 5890 5890 5892 5895 5898 5901 5902 5904 5906 5908 5911 5914 5916 5918 5919 5920 5922 5922 5923 5924 5925 5926 5926 5925
5849 5856 5860 5865 5871 5873 5877 5878 5882 5887 5889 5889 5891 5894 5897 5901 5903 5906 5908 5910 5911 5914 5916 5915 5917 5919 5921 5921 5922 5923 5924 5924 5925
5850 5848 5853 5859 5863 5868 5870 5875 5879 5883 5886 5887 5889 5893 5895 5898 5900 5902 5905 5907 5909 5911 5912 5912 5915 5916 5918 5919 5920 5921 5922 5923 5923
5842 5845 5846 5851 5858 5862 5865 5869 5873 5878 5881 5884 5887 5890 5892 5894 5897 5899 5900 5902 5905 5908 5910 5911 5913 5914 5915 5916 5917 5918 5919 5920 5921
5838 5839 5842 5846 5850 5855 5858 5863 5867 5871 5876 5880 5882 5885 5888 5891 5892 5894 5896 5898 5901 5904 5907 5909 5911 5912 5913 5914 5915 5915 5917 5917 5917
5835 5835 5837 5840 5843 5847 5852 5857 5861 5864 5870 5873 5876 5878 5883 5885 5887 5888 5891 5895 5897 5899 5903 5907 5909 5911 5912 5913 5913 5913 5912 5913 5914
5832 5832 5833 5835 5837 5838 5844 5852 5857 5860 5863 5866 5870 5874 5877 5880 5884 5886 5887 5889 5893 5896 5897 5900 5902 5904 5907 5909 5909 5909 5908 5908 5907
5828 5830 5829 5828 5831 5833 5837 5842 5848 5853 5852 5858 5861 5863 5868 5872 5877 5881 5883 5884 5886 5890 5894 5894 5895 5897 5899 5900 5902 5902 5902 5901 5900
5826 5825 5827 5824 5824 5825 5828 5833 5840 5846 5847 5846 5849 5858 5861 5865 5866 5870 5873 5874 5877 5880 5885 5888 5888 5890 5892 5893 5893 5893 5894 5893 5893
5820 5820 5822 5823 5820 5821 5826 5825 5828 5834 5832 5838 5839 5847 5849 5853 5851 5851 5862 5866 5866 5870 5873 5879 5881 5881 5882 5884 5885 5886 5886 5885 5885
5813 5813 5816 5818 5818 5820 5823 5824 5825 5827 5828 5832 5834 5837 5843 5843 5844 5847 5849 5855 5858 5860 5863 5866 5868 5872 5872 5875 5876 5877 5878 5877 5876
5806 5806 5808 5810 5812 5814 5815 5817 5818 5820 5822 5824 5827 5828 5832 5833 5837 5839 5841 5847 5849 5850 5854 5857 5860 5862 5864 5867 5867 5868 5869 5869 5867
5801 5800 5800 5802 5804 5808 5811 5812 5814 5817 5817 5819 5822 5822 5824 5828 5829 5830 5832 5837 5837 5834 5847 5837 5844 5852 5856 5858 5859 5859 5860 5860 5858
5794 5794 5794 5795 5797 5798 5802 5806 5808 5811 5814 5816 5818 5819 5820 5822 5823 5825 5827 5826 5830 5832 5836 5839 5841 5844 5846 5849 5849 5849 5849 5851 5850
5783 5785 5787 5787 5789 5791 5793 5797 5802 5804 5807 5809 5811 5816 5816 5816 5815 5813 5815 5816 5818 5824 5828 5830 5832 5834 5836 5838 5839 5840 5841 5842 5842
5774 5774 5778 5780 5781 5784 5787 5790 5794 5797 5800 5803 5805 5809 5811 5808 5810 5811 5810 5811 5814 5818 5821 5825 5826 5827 5831 5833 5833 5834 5834 5834 5834
5763 5764 5766 5772 5774 5776 5779 5782 5787 5791 5794 5797 5800 5803 5804 5804 5805 5808 5808 5812 5814 5817 5819 5820 5823 5825 5824 5825 5826 5827 5827 5827 5826
5751 5754 5757 5761 5766 5766 5770 5774 5777 5782 5787 5790 5793 5796 5798 5800 5802 5803 5804 5807 5812 5811 5813 5814 5816 5818 5819 5817 5818 5818 5818 5819 5818